Home > Weather > The Valley > Past weeks

Flag for Anguilla Weather for the Past 2 Weeks in The Valley, Anguilla

Now
79 °F

Passing clouds.


Feels Like: 81 °F
Forecast: 76 / 82 °F
Wind: 12 mph from Southeast

Location: Juliana Airport - Saint Maarten

Current Time: Feb 13, 2016 at 12:43:36 AM

Latest Report: Feb 13, 2016 at 12:00 AM


Visibility: N/A

Pressure: 30.07 "Hg

Humidity: 70%

Dew point: 68 °F

Location of The ValleyLocation

Historic Weather in The Valley — Graph

°F

The Valley Temperature Yesterday

Maximum temperature yesterday: 82 °F (at 10:00 AM)
Minimum temperature yesterday: 75 °F (at 6:00 AM)
Average temperature yesterday: 80 °F

High & Low Weather Summary for the Past Weeks

 TemperatureHumidityPressure
High84 °F (Feb 5, 12:00 PM)100% (Jan 30, 1:00 AM)30.15 "Hg (Jan 30, 1:00 AM)
Low73 °F (Jan 30, 12:00 AM)54% (Feb 4, 3:00 PM)29.86 "Hg (Feb 4, 3:00 PM)
Average79 °F74%30.04 "Hg
* Reported Jan 28 11:00 PM — Feb 12 11:00 PM, The Valley, Weather by CustomWeather, © 2016

Note: Actual official high and low records may vary slightly from our data, if they occured in-between our weather recording intervals... More about our weather records

Advertising

The Valley Weather History for the Previous 24 Hours

 ConditionsComfort  
Time TempWeatherWind HumidityBarometerVisibility
11:00 PM
Fri, Feb 12
79 °FPassing clouds.12 mph74%30.07 "HgN/A
10:00 PM79 °FPassing clouds.7 mph74%30.07 "HgN/A
9:00 PM79 °FPassing clouds.10 mph70%30.07 "HgN/A
8:00 PM79 °FPassing clouds.9 mph70%30.07 "HgN/A
7:00 PM79 °FPassing clouds.13 mph70%30.07 "HgN/A
6:00 PM79 °FPassing clouds.13 mph70%30.07 "HgN/A
5:00 PM81 °FScattered clouds.13 mph70%30.04 "HgN/A
4:00 PM82 °FScattered clouds.12 mph66%30.04 "HgN/A
3:00 PM82 °FPassing clouds.12 mph58%30.04 "HgN/A
2:00 PM82 °FPassing clouds.12 mph55%30.07 "HgN/A
1:00 PM82 °FWarm.12 mph66%30.09 "HgN/A
12:00 PM82 °FScattered clouds.12 mph62%30.12 "HgN/A
11:00 AM81 °FScattered clouds.12 mph70%30.12 "HgN/A
10:00 AM82 °FPassing clouds.12 mph66%30.15 "HgN/A
9:00 AM79 °FPartly sunny.10 mph70%30.12 "HgN/A
8:00 AM77 °FPartly sunny.12 mph74%30.12 "HgN/A
7:00 AM77 °FPartly sunny.8 mph69%30.09 "HgN/A
6:00 AM75 °FPassing clouds.9 mph83%30.07 "HgN/A
5:00 AM77 °FPassing clouds.9 mph79%30.07 "HgN/A
4:00 AM77 °FSprinkles. Passing clouds.5 mph83%30.07 "HgN/A
Weather by CustomWeather, © 2016

See weather overviewHow to use our weather pages